Location: Maccacari
(45.1333°N, 11.1333°E)
Time: 02:34:44
(UTC+00:00)

Vanguard 2 - Pass Details

Date: 27 January 2021
Orbit: 552 x 2938 km, 32.9° (Epoch: 05 March)

Event Time Altitude Azimuth Distance (km) Brightness Sun altitude
Rises 15:28:04 0° 232° (SW) 2,806 13.1 6.5°
Reaches altitude 10° 15:31:13 10° 206° (SSW) 1,821 10.7 6.0°
Maximum altitude 15:33:26 14° 172° (S) 1,559 9.5 5.7°
Drops below altitude 10° 15:35:41 10° 138° (SE) 1,874 9.5 5.4°
Sets 15:39:01 0° 113° (ESE) 2,948 10.2 4.9°
